Location: Detroit
(42.3310°N, 83.0460°W)
Time: 09:47:34
(UTC-05:00)

ISS - Pass Details

Date: 06 December 2021
Orbit: 413 x 422 km, 51.6° (Epoch: 24 January)

Event Time Altitude Azimuth Distance (km) Brightness Sun altitude
Rises 19:42:49 0° 288° (WNW) 2,376 1.1 -29.4°
Reaches altitude 10° 19:45:44 10° 260° (W) 1,503 0.0 -29.9°
Enters shadow 19:46:57 13° 240° (WSW) 1,326 -0.6 -30.1°
